North Myrtle Beach, SC

11:56 AM EDT on July 23, 2017 (GMT -0400)
Grand Strand

Weather History for KCRE - November, 2012

Change the Weather History Date:

Saturday, November 17, 2012

  Actual Average Record
Temperature  
Mean Temperature 50 °F 56 °F  
Max Temperature 57 °F 66 °F 82 °F (1988)
Min Temperature 43 °F 46 °F 29 °F (2007)
Degree Days  
Heating Degree Days 15 9  
Month to date heating degree days 207 126  
Since 1 July heating degree days 293 216  
Cooling Degree Days 0 0  
Month to date cooling degree days 1 12  
Year to date cooling degree days 2096 1895  
Moisture  
Dew Point 42 °F    
Average Humidity 73    
Maximum Humidity 83    
Minimum Humidity 62    
Precipitation  
Precipitation 0.00 in 0.09 in 0.26 in (2002)
Month to date precipitation 1.27 1.70  
Year to date precipitation 34.50 47.21  
Sea Level Pressure  
Sea Level Pressure 30.33 in    
Wind  
Wind Speed 13 mph (NNE)    
Max Wind Speed 20 mph    
Max Gust Speed 26 mph    
Visibility 10 miles    
Events      
T = Trace of Precipitation, MM = Missing Value Source: NWS Daily Summary

Daily Weather History Graph

Daily Weather History Graph

Search for Another Location

Airport or City:

Trip Planner

Search our weather history database for the weather conditions in past years. The results will help you decide how hot, cold, wet, or windy it might be!

Date:

Astronomy

Nov. 17, 2012 Rise Set
Actual Time 6:49 AM EST 5:10 PM EST
Civil Twilight 6:22 AM EST 5:36 PM EST
Nautical Twilight 5:52 AM EST 6:07 PM EST
Astronomical Twilight 5:22 AM EST 6:36 PM EST
Moon 10:32 AM EST (11/17) 9:17 PM EST (11/17)
Length of Visible Light 11h 14m
Length of Day
10h 20m
Waxing Crescent, 20% of the Moon is Illuminated
Nov 17
Waxing Crescent
Nov 20
First Quarter
Nov 28
Full
Dec 6
Last Quarter
Dec 13
New

Hourly Weather History & Observations

Time (EST) Temp. Windchill Dew Point Humidity Pressure Visibility Wind Dir Wind Speed Gust Speed Precip Events Conditions
12:53 AM 45.0 °F 40.1 °F 39.0 °F 80% 30.33 in 10.0 mi NNE 9.2 mph - N/A   Clear
1:53 AM 45.0 °F 39.7 °F 39.0 °F 80% 30.32 in 10.0 mi NNE 10.4 mph - N/A   Clear
2:53 AM 44.1 °F 38.6 °F 37.0 °F 76% 30.32 in 10.0 mi NNE 10.4 mph - N/A   Clear
3:53 AM 44.1 °F 37.7 °F 36.0 °F 73% 30.32 in 10.0 mi NNE 12.7 mph - N/A   Clear
4:53 AM 43.0 °F 36.8 °F 37.0 °F 80% 30.31 in 10.0 mi NNE 11.5 mph - N/A   Clear
5:53 AM 43.0 °F 36.8 °F 36.0 °F 76% 30.33 in 10.0 mi NE 11.5 mph - N/A   Clear
6:53 AM 43.0 °F 36.4 °F 35.1 °F 74% 30.34 in 10.0 mi NE 12.7 mph 19.6 mph N/A   Clear
7:53 AM 43.0 °F 36.4 °F 36.0 °F 76% 30.35 in 10.0 mi NNE 12.7 mph 19.6 mph N/A   Clear
8:53 AM 46.9 °F - 37.9 °F 71% 30.36 in 10.0 mi NE 12.7 mph 21.9 mph N/A   Mostly Cloudy
9:18 AM 46.4 °F 41.1 °F 39.2 °F 76% 30.35 in 10.0 mi NNE 11.5 mph - N/A   Overcast
9:53 AM 50.0 °F - 42.1 °F 74% 30.37 in 10.0 mi NE 13.8 mph - N/A   Overcast
10:05 AM 50.0 °F - 42.8 °F 76% 30.36 in 10.0 mi NE 12.7 mph 18.4 mph N/A   Overcast
10:53 AM 51.1 °F - 42.1 °F 71% 30.36 in 10.0 mi ENE 18.4 mph - N/A   Overcast
11:25 AM 53.6 °F - 42.8 °F 67% 30.35 in 10.0 mi NNE 13.8 mph 20.7 mph N/A   Scattered Clouds
11:53 AM 54.0 °F - 43.0 °F 66% 30.33 in 10.0 mi NNE 15.0 mph 19.6 mph N/A   Clear
12:53 PM 55.9 °F - 44.1 °F 64% 30.33 in 10.0 mi North 8.1 mph - N/A   Clear
1:53 PM 55.9 °F - 45.0 °F 67% 30.33 in 10.0 mi NNE 9.2 mph - N/A   Mostly Cloudy
2:53 PM 57.0 °F - 45.0 °F 64% 30.32 in 10.0 mi North 10.4 mph 19.6 mph N/A   Mostly Cloudy
3:53 PM 55.9 °F - 46.0 °F 69% 30.32 in 10.0 mi NNE 13.8 mph - N/A   Overcast
4:53 PM 55.0 °F - 45.0 °F 69% 30.32 in 10.0 mi NNE 13.8 mph - N/A   Overcast
5:49 PM 55.4 °F - 46.4 °F 72% 30.33 in 10.0 mi NNE 11.5 mph 21.9 mph N/A   Overcast
5:53 PM 55.0 °F - 46.0 °F 72% 30.33 in 10.0 mi NNE 13.8 mph 20.7 mph N/A   Overcast
6:53 PM 55.0 °F - 46.0 °F 72% 30.33 in 10.0 mi NNE 15.0 mph 23.0 mph N/A   Overcast
7:53 PM 55.0 °F - 45.0 °F 69% 30.32 in 10.0 mi NNE 15.0 mph 24.2 mph N/A   Overcast
8:40 PM 55.4 °F - 44.6 °F 67% 30.32 in 10.0 mi NNE 16.1 mph 25.3 mph N/A   Overcast
8:53 PM 55.0 °F - 45.0 °F 69% 30.32 in 10.0 mi NNE 18.4 mph 26.5 mph N/A   Overcast
9:02 PM 55.4 °F - 44.6 °F 67% 30.33 in 10.0 mi NE 16.1 mph 24.2 mph N/A   Overcast
9:12 PM 55.4 °F - 44.6 °F 67% 30.33 in 10.0 mi NE 15.0 mph - N/A   Overcast
9:53 PM 54.0 °F - 45.0 °F 72% 30.32 in 10.0 mi NNE 16.1 mph 23.0 mph N/A   Overcast
10:03 PM 53.6 °F - 44.6 °F 72% 30.32 in 10.0 mi NNE 12.7 mph 20.7 mph N/A   Mostly Cloudy
10:53 PM 53.1 °F - 45.0 °F 74% 30.34 in 10.0 mi NE 11.5 mph - N/A   Scattered Clouds
11:53 PM 53.1 °F - 45.0 °F 74% 30.32 in 10.0 mi NNE 12.7 mph - N/A   Overcast